Погода в Сураже

Беларусь     55°24′25″N   30°43′13″E
темп.,
°C
ветер,
м/с
пор.,
м/с
влажн.,
%
обл.,
%
осадки,
мм/ч
давл.,
гПа
погр.,
м
14 апреля, ср
ср1400:00+10ююв2697100 0.1 1017186
03:00+9ю3797100 0.1 1016280
06:00+9юз2599100 1.0 1016222
09:00+9зсз129097 1.0 1017239
12:00+9с2390100 0.1 1017213
15:00+9ссв3386100 0.2 1018372
18:00+9ссв3586100 0.0 1018335
21:00+6с3795100 0.0 1019278
15 апреля, чт
чт1500:00+5ссв3895100 0.0 1019331
03:00+5ссв3895100 0.0 1019398
06:00+5ссв4995100 0.3 1019421
09:00+5ссв41195100 2.6 1019507
12:00+6ссв51193100 0.9 1019495
15:00+6ссв51293100 1.8 1019692
18:00+6св51394100 1.1 1019654
21:00+6св51394100 4.1 1019625
16 апреля, пт
пт1600:00+6св51392100 3.3 1019539
03:00+6св51391100 3.3 1019745
06:00+6св51291100 0.0 1019758
09:00+6св51288100 0.0 1020711
12:00+6всв51291100 1.3 1021681
15:00+8всв51085100 1.3 1021803
18:00+8всв5983100 0.0 1022963
21:00+8св41185100 0.1 1022638
17 апреля, сб
сб1700:00+8всв5138599 1.6 1022684
03:00+7всв5128799 2.5 1023570
06:00+6всв4118994 0.0 1024403
09:00+7всв41082100 0.0 1026521
12:00+11в586972 0.0 1026884
15:00+13в5860100 0.0 10261139
18:00+12всв5960100 0.0 10261183
21:00+8всв3106483 0.0 1027311
18 апреля, вс
вс1800:00+6всв4136647 0.0 1028425
03:00+4всв412746 0.0 1028344
06:00+3всв3127811 0.0 1028331
09:00+7в510595 0.0 1028561
12:00+12в57443 0.0 10281260
15:00+14в464345 0.0 10271698
18:00+12вюв375672 0.0 1027764
21:00+9юв2670100 0.0 1028193